Weather Roundup
Issued by NWS

Home | Current Version | Previous Version | Text Only | Print | Product List | Glossary On
Versions: 1 2 3 4 5 6 7 8 9 10 11 12 13 14 15 16 17 18 19 20 21 22 23 24 25 26 27 28 29 30 31 32 33 34 35 36 37 38 39 40 41 42 43 44 45 46 47 48 49 50
000
NZUS93 KARX 171059
HRRWXR

CURRENT HOURLY OBSERVATIONS ACROSS
MUCH OF THE UPPER MISSISSIPPI VALLEY
NATIONAL WEATHER SERVICE LA CROSSE WI
500 AM CST FRI NOV 17 2017


...SOUTHEAST MINNESOTA...


CITY           SKY/WX    TMP DP  RH WIND       PRES   REMARKS
ROCHESTER      CLOUDY    33  29  85 S23G35    29.80F WCI  21
ROCHESTER/MAYO CLOUDY    33  29  85 SE20G30   29.82F WCI  22
WINONA         CLOUDY    36  30  80 SE12      29.91F WCI  27
AUSTIN         CLOUDY    34  28  80 S14G21    29.80F WCI  24
ALBERT LEA     CLOUDY    34  28  80 S20G32    29.76F WCI  22
DODGE CENTER   CLOUDY    32  28  86 SE22G31   29.78F WCI  19
PRESTON        CLOUDY    32  28  86 SE20G25   29.87F WCI  20
OWATONNA       CLOUDY    34  30  86 SE24G30   29.76F WCI  21
FARIBAULT      CLOUDY    36  30  80 SE18      29.75F WCI  25
$$

...ELSEWHERE IN MINNESOTA...


CITY           SKY/WX    TMP DP  RH WIND       PRES   REMARKS
MINNEAPOLIS    CLOUDY    36  30  79 SE18G29   29.76F WCI  26
INTNL FALLS    MIX PCPN  32  24  72 S9G21     29.67S WCI  24
DULUTH         CLOUDY    31  25  78 S17       29.75F WCI  19
RED WING       CLOUDY    36  27  69 SE16G22   29.81F WCI  26
REDWOOD FALLS  CLOUDY    37  29  72 SE18      29.66S WCI  27
MANKATO        CLOUDY    36  29  75 S24G33    29.70F WCI  24
WORTHINGTON    CLOUDY    37  30  75 S24G30    29.60F WCI  26
FAIRMONT       CLOUDY    36  30  79 S22G31    29.69F WCI  25
$$

...SOUTHWEST WISCONSIN...


CITY           SKY/WX    TMP DP  RH WIND       PRES   REMARKS
LA CROSSE      CLOUDY    36  29  75 SE16      29.94F WCI  26
PRAIRIE DU CHI CLOUDY    35  28  78 SE8G17    30.01F WCI  28
BOSCOBEL       CLOUDY    36  29  75 S7        30.02F WCI  30
LONE ROCK      NOT AVBL
PLATTEVILLE    CLOUDY    33  32  97 SE13      30.04F WCI  23
FORT MC COY    CLOUDY    34  29  82 SE7       30.01F WCI  28
CAMP DOUGLAS   CLOUDY    34  28  78 SE13      30.01F WCI  25
MAUSTON-NEW LI CLOUDY    34  29  82 SE12      30.02F WCI  25
VIROQUA        CLOUDY    32  31  97 SE15      29.96F WCI  22
WIS DELLS      CLOUDY    33  28  82 S12G24    30.04F WCI  24
$$

...ELSEWHERE IN WISCONSIN...


CITY           SKY/WX    TMP DP  RH WIND       PRES   REMARKS
MILWAUKEE      CLOUDY    37  31  78 S7        30.13F WCI  32
MADISON        CLOUDY    34  28  79 S15G24    30.07F WCI  24
GREEN BAY      CLOUDY    34  30  85 E3        30.11F
EAU CLAIRE     CLOUDY    34  27  75 S14       29.90F WCI  25
BLACK RVR FLS  CLOUDY    34  26  73 SE7       29.98F WCI  28
MEDFORD        CLOUDY    30  26  87 SE14G23   29.94F WCI  19
WAUSAU         CLOUDY    31  27  85 SE14      30.00F WCI  21
WIS RAPIDS     CLOUDY    33  27  78 S9        30.04F WCI  25
MARSHFIELD     CLOUDY    31  26  82 SE14      29.97F WCI  21
RICE LAKE      PTCLDY    32  28  85 SE22      29.87F WCI  20
$$

...NORTHEAST IOWA...


CITY           SKY/WX    TMP DP  RH WIND       PRES   REMARKS
WATERLOO       CLOUDY    34  29  82 SE18G26   29.90F WCI  23
DUBUQUE        CLOUDY    31  29  92 S15G25    30.02F WCI  20
DECORAH        CLOUDY    34  30  86 SE16G25   29.91F WCI  23
MASON CITY     CLOUDY    32  29  88 SE24G31   29.80F WCI  19
CHARLES CITY   CLOUDY    34  34 100 SE17G26   29.87F WCI  23
OELWEIN        CLOUDY    32  32 100 SE22      29.94S WCI  19
$$

...ELSEWHERE IN IOWA...


CITY           SKY/WX    TMP DP  RH WIND       PRES   REMARKS
DES MOINES     CLOUDY    43  32  65 SE14      29.84S
IOWA CITY      CLOUDY    36  31  82 SE15      30.00F WCI  27
FORT DODGE     CLOUDY    39  30  70 SE14      29.77F WCI  31
MARSHALLTOWN   MOCLDY    35  31  85 SE21      29.87F WCI  24
CEDAR RAPIDS   CLOUDY    34  31  88 SE18G25   29.94F WCI  23
$$

...NORTHERN ILLINOIS...


CITY           SKY/WX    TMP DP  RH WIND       PRES   REMARKS
CHICAGO-OHARE  CLOUDY    36  30  79 S13       30.14F WCI  27
CHICAGO-MIDWAY NOT AVBL
MOLINE         CLOUDY    34  29  82 SE9       30.04F WCI  27
ROCKFORD       CLOUDY    33  28  81 S14       30.12F WCI  23
PEORIA         CLOUDY    32  29  88 S12G17    30.10F WCI  23
$$

NOTE: "FAIR" INDICATES FEW OR NO CLOUDS BELOW 12,000 FEET WITH NO
SIGNIFICANT WEATHER AND/OR OBSTRUCTIONS TO VISIBILITY. WIND
SPEEDS ARE IN MILES-PER-HOUR.




USA.gov is the U.S. government's official web portal to all federal, state and local government web resources and services.